Retour au catalogue

CZ-6A DEB

ActifPO
NORAD 60680·DEBRIS·🇨🇳 China

Lancé Aug 6, 2024 depuis Taiyuan Satellite Launch Center

Loading…

Prochains Passages (prochaines 24 heures)

TLE

FraisSource: Space-Track

Époque: Sep 14, 2026, 10:43 UTC

1 60680U 24140CH  26257.44684148  .00000419  00000-0  12920-3 0  9993
2 60680  88.9657 259.6219 0125117 294.9349  63.8890 14.35358849109886

Suivez CZ-6A DEB en temps réel avec AllMySat

Download on the App Store